SKYNET 5A

Last updated on Aug. 12, 2020, 5:32 a.m. UTC

1 30794U 07007B   20224.81503751 -.00000271  00000-0  00000-0 0  9998
2 30794   0.6933  90.9419 0003659  53.8143 204.5980  1.00272278 49285
UTC
Height (km)
Latitude
Longitude
Inclination
Orbital Period
UTC large
Height (km)
Speed (km/s)
/
Latitude / Longitude
Inclination (degrees)
Orbital Period (minutes)
Azimuth
Elevation
Range (km)
Doppler Factor
iOS Compass Heading
iOS Angle

Next 30 passes for location: Hong Kong

Rise time Rise Azimuth (degrees) Set time Set Azimuth (degrees) Duration Max altitude (degrees)

No matching passes for this satellites